Regional Weather Roundup
Issued by NWS

Home | Current Version | Previous Version | Graphics & Text | Print | Product List | Glossary On
Versions: 1 2 3 4 5 6 7 8 9 10 11 12 13 14 15 16 17 18 19 20 21 22 23 24 25 26 27 28 29 30 31 32 33 34 35 36 37 38 39 40 41 42 43 44 45 46 47 48 49 50
000
ASUS43 KFSD 250910
RWRSD

WEATHER ROUNDUP FOR SOUTH DAKOTA
NATIONAL WEATHER SERVICE SIOUX FALLS SD
400 AM CDT SUN JUN 25 2017

NOTE: "FAIR" INDICATES FEW OR NO CLOUDS BELOW 12,000 FEET WITH NO
SIGNIFICANT WEATHER AND/OR OBSTRUCTIONS TO VISIBILITY.


SDZ001>005-009-010-012>017-251000-
NORTHWEST AND NORTH CENTRAL SOUTH DAKOTA

CITY           SKY/WX    TMP DP  RH WIND       PRES   REMARKS
BUFFALO          N/A     46  32  58 SW8       30.28F
FAITH            N/A     42  35  76 SW8       30.33S
MOBRIDGE       CLEAR     40  36  86 CALM      30.28S
$$

SDZ012>016-024>037-041>051-057-063-072>074-251000-
SOUTHWEST AND SOUTH CENTRAL SOUTH DAKOTA

CITY           SKY/WX    TMP DP  RH WIND       PRES   REMARKS
RAPID CTY ARPT CLEAR     44  33  65 CALM      30.37F
PIERRE         NOT AVBL
CUSTER         PTCLDY    44  27  51 CALM      30.41F
ELLSWORTH AFB  CLEAR     52  31  45 SW3       30.36F
PHILIP         CLEAR     44  36  73 W7        30.35S
PINE RIDGE     CLOUDY    46  39  76 NE5       30.37S
SPEARFISH      FAIR      45  34  65 CALM      30.36F
WINNER         FAIR      44  37  76 SW8       30.33S
$$

SDZ004>011-016>023-039-040-251000-
NORTHEAST SOUTH DAKOTA

CITY           SKY/WX    TMP DP  RH WIND       PRES   REMARKS
ABERDEEN       CLEAR     46  42  86 NW9       30.26S
WATERTOWN      CLOUDY    51  42  71 NW14      30.22R
BROOKINGS      MOCLDY    48  43  82 NW5       30.23R
SISSETON         N/A     50  41  71 NW13      30.20R
$$

SDZ017-020-022-023-036>040-048>070-251000-
SOUTHEAST SOUTH DAKOTA

CITY           SKY/WX    TMP DP  RH WIND       PRES   REMARKS
SIOUX FALLS    CLEAR     50  45  83 W9        30.23R
HURON          CLEAR     44  43  96 W8        30.27R
CHAMBERLAIN    CLEAR     47  44  88 W8        30.32R
YANKTON        CLEAR     50  43  77 W9        30.27S
$$

ABBREVIATIONS USED IN REMARKS
   TC - TEMPERATURE IN CELSIUS
  WCI - WIND CHILL INDEX
   HX - HEAT INDEX
  VSB - VISIBILITY




USA.gov is the U.S. government's official web portal to all federal, state and local government web resources and services.